| time (UTC) | temp F | wind direction | speed MPH | gust MPH | rain 1hr in | rain 24hr in | rain mn in | humidity % | barometer mb |
| 20260506211439 | 65 | 352 | 1.0 | 2.0 | 0.00 | 0.00 | 0.00 | 10 | 1011.3 |
| 20260506210937 | 64 | 353 | 0.0 | 0.0 | 0.00 | 0.00 | 0.00 | 10 | 1011.2 |
| 20260506210433 | 64 | 296 | 0.0 | 2.0 | 0.00 | 0.00 | 0.00 | 10 | 1011.4 |
| 20260506205930 | 63 | 266 | 0.0 | 1.0 | 0.00 | 0.00 | 0.00 | 10 | 1011.4 |
| 20260506205426 | 64 | 300 | 0.0 | 2.0 | 0.00 | 0.00 | 0.00 | 10 | 1011.8 |
| 20260506204922 | 63 | 311 | 0.0 | 3.0 | 0.00 | 0.00 | 0.00 | 10 | 1011.9 |
| 20260506204421 | 63 | 245 | 0.0 | 1.0 | 0.00 | 0.00 | 0.00 | 10 | 1011.6 |
| 20260506203918 | 63 | 295 | 0.0 | 0.0 | 0.00 | 0.00 | 0.00 | 10 | 1011.8 |
| 20260506203415 | 63 | 306 | 0.0 | 2.0 | 0.00 | 0.00 | 0.00 | 10 | 1011.9 |
| 20260506202912 | 62 | 344 | 0.0 | 1.0 | 0.00 | 0.00 | 0.00 | 10 | 1012.0 |
| 20260506202409 | 62 | 355 | 1.0 | 3.0 | 0.00 | 0.00 | 0.00 | 10 | 1012.2 |
| 20260506201905 | 62 | 12 | 0.0 | 0.0 | 0.00 | 0.00 | 0.00 | 10 | 1012.2 |
| 20260506201403 | 62 | 263 | 0.0 | 2.0 | 0.00 | 0.00 | 0.00 | 10 | 1012.1 |
| 20260506200859 | 62 | 284 | 0.0 | 1.0 | 0.00 | 0.00 | 0.00 | 10 | 1012.3 |
| 20260506200355 | 61 | 21 | 0.0 | 1.0 | 0.00 | 0.00 | 0.00 | 10 | 1012.5 |
| 20260506195852 | 61 | 300 | 0.0 | 1.0 | 0.00 | 0.00 | 0.00 | 10 | 1012.3 |
| 20260506195349 | 60 | 38 | 0.0 | 1.0 | 0.00 | 0.00 | 0.00 | 10 | 1012.6 |
| 20260506194846 | 61 | 235 | 0.0 | 0.0 | 0.00 | 0.00 | 0.00 | 10 | 1012.4 |
| 20260506194343 | 59 | 156 | 0.0 | 0.0 | 0.00 | 0.00 | 0.00 | 10 | 1013.0 |
| 20260506193840 | 59 | 288 | 0.0 | 3.0 | 0.00 | 0.00 | 0.00 | 10 | 1012.9 |
| 20260506193337 | 60 | 296 | 0.0 | 2.0 | 0.00 | 0.00 | 0.00 | 10 | 1013.1 |
| 20260506192833 | 59 | 303 | 0.0 | 1.0 | 0.00 | 0.00 | 0.00 | 10 | 1013.3 |
| 20260506192330 | 59 | 285 | 0.0 | 2.0 | 0.00 | 0.00 | 0.00 | 10 | 1013.0 |
| 20260506191827 | 58 | 349 | 0.0 | 1.0 | 0.00 | 0.00 | 0.00 | 10 | 1013.2 |
| 20260506191323 | 59 | 257 | 0.0 | 1.0 | 0.00 | 0.00 | 0.00 | 10 | 1013.2 |
| 20260506190820 | 58 | 273 | 0.0 | 2.0 | 0.00 | 0.00 | 0.00 | 10 | 1013.3 |
| 20260506190317 | 59 | 266 | 0.0 | 2.0 | 0.00 | 0.00 | 0.00 | 10 | 1013.4 |
| 20260506185814 | 58 | 356 | 0.0 | 2.0 | 0.00 | 0.00 | 0.00 | 10 | 1013.4 |
| 20260506185311 | 58 | 345 | 0.0 | 1.0 | 0.00 | 0.00 | 0.00 | 10 | 1013.3 |
| 20260506184808 | 58 | 255 | 0.0 | 1.0 | 0.00 | 0.00 | 0.00 | 10 | 1013.9 |
| 20260506184305 | 56 | 243 | 0.0 | 0.0 | 0.00 | 0.00 | 0.00 | 10 | 1013.7 |
| 20260506183802 | 57 | 192 | 0.0 | 1.0 | 0.00 | 0.00 | 0.00 | 10 | 1014.0 |
| 20260506183257 | 56 | 300 | 0.0 | 0.0 | 0.00 | 0.00 | 0.00 | 10 | 1014.0 |
| 20260506182754 | 56 | 211 | 0.0 | 0.0 | 0.00 | 0.00 | 0.00 | 10 | 1014.1 |
| 20260506182252 | 56 | 277 | 0.0 | 0.0 | 0.00 | 0.00 | 0.00 | 10 | 1014.2 |
| 20260506181749 | 55 | 219 | 0.0 | 1.0 | 0.00 | 0.00 | 0.00 | 10 | 1014.3 |
| 20260506181247 | 54 | 200 | 0.0 | 1.0 | 0.00 | 0.00 | 0.00 | 10 | 1014.4 |
| 20260506180744 | 55 | 303 | 0.0 | 2.0 | 0.00 | 0.00 | 0.00 | 10 | 1014.6 |
| 20260506180239 | 55 | 217 | 0.0 | 0.0 | 0.00 | 0.00 | 0.00 | 10 | 1014.6 |
| 20260506175736 | 55 | 267 | 0.0 | 1.0 | 0.00 | 0.00 | 0.00 | 10 | 1014.6 |
| 20260506175233 | 54 | 277 | 0.0 | 2.0 | 0.00 | 0.00 | 0.00 | 10 | 1014.7 |
| 20260506174731 | 54 | 289 | 0.0 | 1.0 | 0.00 | 0.00 | 0.00 | 10 | 1014.6 |
| 20260506174227 | 53 | 258 | 0.0 | 1.0 | 0.00 | 0.00 | 0.00 | 10 | 1015.1 |
| 20260506173725 | 54 | 261 | 0.0 | 1.0 | 0.00 | 0.00 | 0.00 | 10 | 1015.0 |
| 20260506173222 | 53 | 258 | 0.0 | 2.0 | 0.00 | 0.00 | 0.00 | 10 | 1014.8 |
| 20260506172719 | 52 | 238 | 0.0 | 0.0 | 0.00 | 0.00 | 0.00 | 10 | 1015.2 |
| 20260506172215 | 51 | 237 | 0.0 | 0.0 | 0.00 | 0.00 | 0.00 | 10 | 1015.4 |
| 20260506171713 | 52 | 232 | 1.0 | 2.0 | 0.00 | 0.00 | 0.00 | 10 | 1015.5 |
| 20260506171210 | 52 | 300 | 0.0 | 0.0 | 0.00 | 0.00 | 0.00 | 10 | 1015.6 |
| 20260506170708 | 51 | 286 | 1.0 | 2.0 | 0.00 | 0.00 | 0.00 | 10 | 1015.6 |
| 20260506170204 | 52 | 263 | 0.0 | 1.0 | 0.00 | 0.00 | 0.00 | 10 | 1015.6 |
| 20260506165703 | 51 | 293 | 0.0 | 2.0 | 0.00 | 0.00 | 0.00 | 10 | 1016.1 |
| 20260506165159 | 51 | 230 | 0.0 | 0.0 | 0.00 | 0.00 | 0.00 | 10 | 1015.6 |
| 20260506164656 | 51 | 269 | 0.0 | 1.0 | 0.00 | 0.00 | 0.00 | 10 | 1016.1 |
| 20260506164153 | 50 | 213 | 0.0 | 2.0 | 0.00 | 0.00 | 0.00 | 10 | 1016.1 |
| 20260506163650 | 50 | 227 | 0.0 | 1.0 | 0.00 | 0.00 | 0.00 | 10 | 1015.9 |
| 20260506163145 | 49 | 254 | 0.0 | 1.0 | 0.00 | 0.00 | 0.00 | 10 | 1016.1 |
| 20260506162641 | 50 | 262 | 0.0 | 0.0 | 0.00 | 0.00 | 0.00 | 10 | 1016.2 |
| 20260506162139 | 49 | 250 | 0.0 | 1.0 | 0.00 | 0.00 | 0.00 | 10 | 1015.8 |
| 20260506161636 | 49 | 240 | 0.0 | 1.0 | 0.00 | 0.00 | 0.00 | 10 | 1016.4 |
| 20260506161133 | 48 | 244 | 0.0 | 1.0 | 0.00 | 0.00 | 0.00 | 10 | 1016.2 |
| 20260506160630 | 48 | 239 | 0.0 | 1.0 | 0.00 | 0.00 | 0.00 | 10 | 1016.6 |
| 20260506160127 | 47 | 250 | 0.0 | 1.0 | 0.00 | 0.00 | 0.00 | 10 | 1016.4 |
| 20260506155626 | 48 | 282 | 0.0 | 1.0 | 0.00 | 0.00 | 0.00 | 10 | 1016.6 |
| 20260506155122 | 45 | 286 | 0.0 | 8.0 | 0.00 | 0.00 | 0.00 | 10 | 1016.7 |
| 20260506153224 | 45 | 262 | 0.0 | 1.0 | 0.00 | 0.00 | 0.00 | 10 | 1016.9 |
| 20260506152721 | 45 | 319 | 0.0 | 1.0 | 0.00 | 0.00 | 0.00 | 10 | 1016.9 |
| 20260506152219 | 46 | 237 | 0.0 | 1.0 | 0.00 | 0.00 | 0.00 | 10 | 1017.2 |
| 20260506151718 | 45 | 279 | 0.0 | 2.0 | 0.00 | 0.00 | 0.00 | 10 | 1017.2 |
| 20260506151214 | 44 | 273 | 0.0 | 1.0 | 0.00 | 0.00 | 0.00 | 10 | 1017.0 |
| 20260506150710 | 44 | 316 | 0.0 | 2.0 | 0.00 | 0.00 | 0.00 | 10 | 1017.0 |
| 20260506150207 | 44 | 292 | 0.0 | 2.0 | 0.00 | 0.00 | 0.00 | 10 | 1017.2 |
| 20260506145704 | 44 | 258 | 0.0 | 0.0 | 0.00 | 0.00 | 0.00 | 10 | 1017.4 |
| 20260506145201 | 44 | 262 | 0.0 | 1.0 | 0.00 | 0.00 | 0.00 | 10 | 1017.3 |
| 20260506144659 | 44 | 298 | 0.0 | 0.0 | 0.00 | 0.00 | 0.00 | 10 | 1017.6 |
| 20260506144155 | 43 | 259 | 0.0 | 0.0 | 0.00 | 0.00 | 0.00 | 10 | 1017.5 |
| 20260506143653 | 44 | 271 | 0.0 | 1.0 | 0.00 | 0.00 | 0.00 | 10 | 1017.4 |
| 20260506143150 | 43 | 292 | 0.0 | 1.0 | 0.00 | 0.00 | 0.00 | 10 | 1017.4 |
| 20260506142649 | 43 | 257 | 0.0 | 0.0 | 0.00 | 0.00 | 0.00 | 10 | 1017.4 |
| 20260506142146 | 43 | 284 | 0.0 | 0.0 | 0.00 | 0.00 | 0.00 | 10 | 1017.6 |
| 20260506141644 | 42 | 273 | 0.0 | 1.0 | 0.00 | 0.00 | 0.00 | 10 | 1017.7 |
| 20260506141142 | 42 | 301 | 0.0 | 1.0 | 0.00 | 0.00 | 0.00 | 10 | 1017.6 |
| 20260506140639 | 42 | 267 | 0.0 | 1.0 | 0.00 | 0.00 | 0.00 | 10 | 1017.8 |
| 20260506140136 | 41 | 274 | 0.0 | 1.0 | 0.00 | 0.00 | 0.00 | 10 | 1017.7 |
| 20260506135633 | 40 | 2 | 0.0 | 0.0 | 0.00 | 0.00 | 0.00 | 10 | 1017.9 |
| 20260506135129 | 39 | 281 | 0.0 | 1.0 | 0.00 | 0.00 | 0.00 | 10 | 1017.6 |
| 20260506134626 | 39 | 282 | 0.0 | 1.0 | 0.00 | 0.00 | 0.00 | 10 | 1018.0 |
| 20260506134121 | 37 | 319 | 0.0 | 0.0 | 0.00 | 0.00 | 0.00 | 10 | 1018.0 |
| 20260506133619 | 36 | 334 | 0.0 | 0.0 | 0.00 | 0.00 | 0.00 | 10 | 1018.0 |
| 20260506133116 | 35 | 308 | 0.0 | 0.0 | 0.00 | 0.00 | 0.00 | 10 | 1018.0 |
| 20260506132614 | 33 | 19 | 0.0 | 0.0 | 0.00 | 0.00 | 0.00 | 10 | 1017.9 |
| 20260506132110 | 32 | 339 | 0.0 | 0.0 | 0.00 | 0.00 | 0.00 | 10 | 1017.8 |
| 20260506131608 | 32 | 7 | 0.0 | 0.0 | 0.00 | 0.00 | 0.00 | 10 | 1017.8 |
| 20260506131104 | 31 | 309 | 0.0 | 0.0 | 0.00 | 0.00 | 0.00 | 10 | 1017.7 |
| 20260506130601 | 29 | 346 | 0.0 | 0.0 | 0.00 | 0.00 | 0.00 | 10 | 1018.0 |
| 20260506130058 | 28 | 332 | 0.0 | 0.0 | 0.00 | 0.00 | 0.00 | 10 | 1018.1 |
| 20260506125557 | 26 | 347 | 0.0 | 0.0 | 0.00 | 0.00 | 0.00 | 10 | 1018.1 |
| 20260506125054 | 25 | 298 | 0.0 | 0.0 | 0.00 | 0.00 | 0.00 | 10 | 1018.1 |
| 20260506124552 | 24 | 325 | 0.0 | 0.0 | 0.00 | 0.00 | 0.00 | 10 | 1018.1 |
| 20260506124049 | 24 | 318 | 0.0 | 0.0 | 0.00 | 0.00 | 0.00 | 10 | 1018.3 |
| 20260506123547 | 23 | 326 | 0.0 | 0.0 | 0.00 | 0.00 | 0.00 | 10 | 1018.3 |
| 20260506123045 | 22 | 353 | 0.0 | 0.0 | 0.00 | 0.00 | 0.00 | 10 | 1018.1 |
| 20260506122541 | 21 | 313 | 0.0 | 0.0 | 0.00 | 0.00 | 0.00 | 10 | 1018.3 |
| 20260506122040 | 20 | 330 | 0.0 | 0.0 | 0.00 | 0.00 | 0.00 | 10 | 1018.3 |
| 20260506121537 | 21 | 2 | 0.0 | 0.0 | 0.00 | 0.00 | 0.00 | 10 | 1018.3 |
| 20260506121033 | 20 | 2 | 0.0 | 0.0 | 0.00 | 0.00 | 0.00 | 10 | 1018.5 |
| 20260506120531 | 20 | 311 | 0.0 | 0.0 | 0.00 | 0.00 | 0.00 | 10 | 1018.4 |
| 20260506120028 | 20 | 306 | 0.0 | 0.0 | 0.00 | 0.00 | 0.00 | 10 | 1018.3 |
| 20260506115526 | 19 | 343 | 0.0 | 0.0 | 0.00 | 0.00 | 0.00 | 10 | 1018.4 |
| 20260506115024 | 20 | 314 | 0.0 | 0.0 | 0.00 | 0.00 | 0.00 | 10 | 1018.8 |
| 20260506114521 | 20 | 322 | 0.0 | 0.0 | 0.00 | 0.00 | 0.00 | 10 | 1018.4 |
| 20260506114020 | 19 | 308 | 0.0 | 0.0 | 0.00 | 0.00 | 0.00 | 10 | 1018.6 |
| 20260506113517 | 19 | 315 | 0.0 | 0.0 | 0.00 | 0.00 | 0.00 | 10 | 1018.7 |
| 20260506113014 | 19 | 340 | 0.0 | 0.0 | 0.00 | 0.00 | 0.00 | 10 | 1018.7 |
| 20260506112511 | 20 | 311 | 0.0 | 0.0 | 0.00 | 0.00 | 0.00 | 10 | 1018.9 |
| 20260506112008 | 20 | 306 | 0.0 | 0.0 | 0.00 | 0.00 | 0.00 | 10 | 1019.0 |
| 20260506111506 | 20 | 300 | 0.0 | 0.0 | 0.00 | 0.00 | 0.00 | 10 | 1018.9 |
| 20260506111003 | 20 | 302 | 0.0 | 0.0 | 0.00 | 0.00 | 0.00 | 10 | 1019.0 |
| 20260506110501 | 21 | 300 | 0.0 | 0.0 | 0.00 | 0.00 | 0.00 | 10 | 1018.8 |
| 20260506105957 | 21 | 288 | 0.0 | 0.0 | 0.00 | 0.00 | 0.00 | 10 | 1019.1 |
| 20260506105453 | 21 | 323 | 0.0 | 0.0 | 0.00 | 0.00 | 0.00 | 10 | 1019.2 |
| 20260506104951 | 21 | 305 | 0.0 | 0.0 | 0.00 | 0.00 | 0.00 | 10 | 1019.1 |
| 20260506104449 | 21 | 287 | 0.0 | 0.0 | 0.00 | 0.00 | 0.00 | 10 | 1019.2 |
| 20260506103947 | 22 | 295 | 0.0 | 0.0 | 0.00 | 0.00 | 0.00 | 10 | 1019.2 |
| 20260506103444 | 22 | 296 | 0.0 | 0.0 | 0.00 | 0.00 | 0.00 | 10 | 1019.5 |
| 20260506102940 | 23 | 301 | 0.0 | 0.0 | 0.00 | 0.00 | 0.00 | 10 | 1019.4 |
| 20260506102439 | 23 | 313 | 0.0 | 0.0 | 0.00 | 0.00 | 0.00 | 10 | 1019.4 |
| 20260506101936 | 23 | 305 | 0.0 | 0.0 | 0.00 | 0.00 | 0.00 | 10 | 1019.1 |
| 20260506101432 | 23 | 332 | 0.0 | 0.0 | 0.00 | 0.00 | 0.00 | 10 | 1019.4 |
| 20260506100929 | 24 | 313 | 0.0 | 0.0 | 0.00 | 0.00 | 0.00 | 10 | 1019.5 |
| 20260506100427 | 24 | 348 | 0.0 | 0.0 | 0.00 | 0.00 | 0.00 | 10 | 1019.8 |
| 20260506095925 | 23 | 310 | 0.0 | 0.0 | 0.00 | 0.00 | 0.00 | 10 | 1019.7 |
| 20260506095424 | 23 | 318 | 0.0 | 0.0 | 0.00 | 0.00 | 0.00 | 10 | 1019.7 |
| 20260506094919 | 23 | 304 | 0.0 | 0.0 | 0.00 | 0.00 | 0.00 | 10 | 1019.9 |
| 20260506094418 | 21 | 305 | 0.0 | 0.0 | 0.00 | 0.00 | 0.00 | 10 | 1019.8 |
| 20260506093915 | 20 | 2 | 0.0 | 0.0 | 0.00 | 0.00 | 0.00 | 10 | 1019.7 |
| 20260506093413 | 19 | 23 | 0.0 | 0.0 | 0.00 | 0.00 | 0.00 | 10 | 1019.7 |
| 20260506092911 | 20 | 37 | 0.0 | 0.0 | 0.00 | 0.00 | 0.00 | 10 | 1019.7 |
| 20260506092409 | 20 | 7 | 0.0 | 0.0 | 0.00 | 0.00 | 0.00 | 10 | 1019.9 |
| 20260506091905 | 19 | 21 | 0.0 | 0.0 | 0.00 | 0.00 | 0.00 | 10 | 1019.9 |
| 20260506091403 | 18 | 35 | 0.0 | 0.0 | 0.00 | 0.00 | 0.00 | 10 | 1020.0 |
| 20260506090900 | 18 | 34 | 0.0 | 0.0 | 0.00 | 0.00 | 0.00 | 10 | 1020.0 |
| 20260506090357 | 19 | 28 | 0.0 | 0.0 | 0.00 | 0.00 | 0.00 | 10 | 1020.0 |
| 20260506085854 | 19 | 15 | 0.0 | 0.0 | 0.00 | 0.00 | 0.00 | 10 | 1020.0 |
| 20260506085350 | 19 | 351 | 0.0 | 0.0 | 0.00 | 0.00 | 0.00 | 10 | 1020.0 |
| 20260506084847 | 19 | 353 | 0.0 | 0.0 | 0.00 | 0.00 | 0.00 | 10 | 1020.3 |
| 20260506084344 | 19 | 2 | 0.0 | 0.0 | 0.00 | 0.00 | 0.00 | 10 | 1020.1 |
| 20260506083840 | 19 | 357 | 0.0 | 0.0 | 0.00 | 0.00 | 0.00 | 10 | 1020.3 |
| 20260506083338 | 19 | 328 | 0.0 | 0.0 | 0.00 | 0.00 | 0.00 | 10 | 1020.3 |
| 20260506082835 | 18 | 326 | 0.0 | 0.0 | 0.00 | 0.00 | 0.00 | 10 | 1020.3 |
| 20260506082331 | 19 | 350 | 0.0 | 0.0 | 0.00 | 0.00 | 0.00 | 10 | 1020.3 |
| 20260506081828 | 19 | 326 | 0.0 | 0.0 | 0.00 | 0.00 | 0.00 | 10 | 1020.1 |
| 20260506081326 | 19 | 20 | 0.0 | 0.0 | 0.00 | 0.00 | 0.00 | 10 | 1020.2 |
| 20260506080823 | 20 | 317 | 0.0 | 0.0 | 0.00 | 0.00 | 0.00 | 10 | 1020.5 |
| 20260506080319 | 20 | 303 | 0.0 | 0.0 | 0.00 | 0.00 | 0.00 | 10 | 1020.5 |
| 20260506073304 | 19 | 350 | 0.0 | 0.0 | 0.00 | 0.00 | 0.00 | 10 | 1020.8 |
| 20260506072800 | 19 | 17 | 0.0 | 0.0 | 0.00 | 0.00 | 0.00 | 10 | 1020.8 |
| 20260506072258 | 19 | 11 | 0.0 | 0.0 | 0.00 | 0.00 | 0.00 | 10 | 1020.6 |
| 20260506071755 | 21 | 316 | 0.0 | 0.0 | 0.00 | 0.00 | 0.00 | 10 | 1021.0 |
| 20260506071254 | 20 | 36 | 0.0 | 0.0 | 0.00 | 0.00 | 0.00 | 10 | 1020.5 |
| 20260506070750 | 20 | 37 | 0.0 | 0.0 | 0.00 | 0.00 | 0.00 | 10 | 1020.9 |
| 20260506070247 | 21 | 24 | 0.0 | 0.0 | 0.00 | 0.00 | 0.00 | 10 | 1020.8 |
| 20260506062224 | 21 | 350 | 0.0 | 0.0 | 0.00 | 0.00 | 0.00 | 10 | 1021.0 |
| 20260506061720 | 22 | 335 | 0.0 | 0.0 | 0.00 | 0.00 | 0.00 | 10 | 1021.1 |
| 20260506061218 | 23 | 359 | 0.0 | 0.0 | 0.00 | 0.00 | 0.00 | 10 | 1020.7 |
| 20260506060716 | 23 | 343 | 0.0 | 0.0 | 0.00 | 0.00 | 0.00 | 10 | 1020.9 |
| 20260506060213 | 23 | 344 | 0.0 | 0.0 | 0.00 | 0.00 | 0.00 | 10 | 1021.0 |
| 20260506051145 | 24 | 11 | 0.0 | 0.0 | 0.00 | 0.00 | 0.00 | 10 | 1021.0 |
| 20260506050643 | 24 | 356 | 0.0 | 0.0 | 0.00 | 0.00 | 0.00 | 10 | 1021.0 |
| 20260506050140 | 24 | 7 | 0.0 | 0.0 | 0.00 | 0.00 | 0.00 | 10 | 1021.1 |
| 20260506045133 | 24 | 21 | 0.0 | 0.0 | 0.00 | 0.00 | 0.00 | 10 | 1021.2 |
| 20260506044631 | 24 | 4 | 0.0 | 0.0 | 0.00 | 0.00 | 0.00 | 10 | 1021.2 |
| 20260506044128 | 25 | 359 | 0.0 | 0.0 | 0.00 | 0.00 | 0.00 | 10 | 1021.2 |
| 20260506043625 | 25 | 338 | 0.0 | 1.0 | 0.00 | 0.00 | 0.00 | 10 | 1021.2 |
| 20260506043123 | 25 | 313 | 0.0 | 0.0 | 0.00 | 0.00 | 0.00 | 10 | 1021.1 |
| 20260506042622 | 26 | 324 | 0.0 | 0.0 | 0.00 | 0.00 | 0.00 | 10 | 1021.0 |
| 20260506042119 | 25 | 11 | 0.0 | 0.0 | 0.00 | 0.00 | 0.00 | 10 | 1021.1 |
| 20260506041618 | 26 | 13 | 0.0 | 0.0 | 0.00 | 0.00 | 0.00 | 10 | 1021.2 |
| 20260506041114 | 29 | 3 | 0.0 | 0.0 | 0.00 | 0.00 | 0.00 | 10 | 1021.2 |
| 20260506040612 | 30 | 7 | 0.0 | 0.0 | 0.00 | 0.00 | 0.00 | 10 | 1021.1 |
| 20260506040108 | 30 | 41 | 0.0 | 0.0 | 0.00 | 0.00 | 0.00 | 10 | 1021.1 |
| 20260506035605 | 31 | 40 | 0.0 | 0.0 | 0.00 | 0.00 | 0.00 | 10 | 1021.3 |
| 20260506035102 | 32 | 40 | 0.0 | 0.0 | 0.00 | 0.00 | 0.00 | 10 | 1021.0 |
| 20260506034559 | 32 | 23 | 0.0 | 0.0 | 0.00 | 0.00 | 0.00 | 10 | 1021.2 |
| 20260506034056 | 32 | 24 | 0.0 | 0.0 | 0.00 | 0.00 | 0.00 | 10 | 1021.1 |
| 20260506033553 | 32 | 22 | 0.0 | 0.0 | 0.00 | 0.00 | 0.00 | 10 | 1021.0 |
| 20260506033050 | 32 | 15 | 0.0 | 0.0 | 0.00 | 0.00 | 0.00 | 10 | 1021.0 |
| 20260506032548 | 33 | 27 | 0.0 | 0.0 | 0.00 | 0.00 | 0.00 | 10 | 1021.0 |
| 20260506032044 | 34 | 41 | 0.0 | 0.0 | 0.00 | 0.00 | 0.00 | 10 | 1021.0 |
| 20260506031542 | 33 | 49 | 0.0 | 0.0 | 0.00 | 0.00 | 0.00 | 10 | 1021.0 |
| 20260506031038 | 33 | 48 | 0.0 | 0.0 | 0.00 | 0.00 | 0.00 | 10 | 1020.9 |
| 20260506030537 | 34 | 44 | 0.0 | 0.0 | 0.00 | 0.00 | 0.00 | 10 | 1020.8 |
| 20260506030034 | 35 | 50 | 0.0 | 0.0 | 0.00 | 0.00 | 0.00 | 10 | 1021.0 |
| 20260506025531 | 37 | 53 | 0.0 | 0.0 | 0.00 | 0.00 | 0.00 | 10 | 1021.0 |
| 20260506025027 | 38 | 46 | 0.0 | 0.0 | 0.00 | 0.00 | 0.00 | 10 | 1020.9 |
| 20260506024524 | 39 | 46 | 0.0 | 0.0 | 0.00 | 0.00 | 0.00 | 10 | 1020.8 |
| 20260506024020 | 40 | 47 | 0.0 | 0.0 | 0.00 | 0.00 | 0.00 | 10 | 1020.8 |
| 20260506023516 | 41 | 41 | 0.0 | 0.0 | 0.00 | 0.00 | 0.00 | 10 | 1020.8 |
| 20260506023014 | 41 | 43 | 0.0 | 0.0 | 0.00 | 0.00 | 0.00 | 10 | 1020.7 |
| 20260506022511 | 42 | 51 | 0.0 | 0.0 | 0.00 | 0.00 | 0.00 | 10 | 1020.9 |
| 20260506022009 | 42 | 46 | 0.0 | 0.0 | 0.00 | 0.00 | 0.00 | 10 | 1020.7 |
| 20260506021506 | 43 | 41 | 0.0 | 0.0 | 0.00 | 0.00 | 0.00 | 10 | 1020.6 |
| 20260506021003 | 43 | 34 | 0.0 | 0.0 | 0.00 | 0.00 | 0.00 | 10 | 1020.6 |
| 20260506020501 | 44 | 40 | 0.0 | 1.0 | 0.00 | 0.00 | 0.00 | 10 | 1020.5 |
| 20260506015957 | 44 | 41 | 0.0 | 0.0 | 0.00 | 0.00 | 0.00 | 10 | 1020.7 |
| 20260506015455 | 44 | 48 | 0.0 | 0.0 | 0.00 | 0.00 | 0.00 | 10 | 1020.6 |
| 20260506014952 | 44 | 43 | 0.0 | 0.0 | 0.00 | 0.00 | 0.00 | 10 | 1020.5 |
| 20260506014449 | 45 | 44 | 0.0 | 0.0 | 0.00 | 0.00 | 0.00 | 10 | 1020.7 |
| 20260506013945 | 45 | 28 | 0.0 | 0.0 | 0.00 | 0.00 | 0.00 | 10 | 1020.7 |
| 20260506013443 | 45 | 45 | 0.0 | 2.0 | 0.00 | 0.00 | 0.00 | 10 | 1020.6 |
| 20260506012939 | 45 | 34 | 0.0 | 1.0 | 0.00 | 0.00 | 0.00 | 10 | 1020.6 |
| 20260506012436 | 45 | 19 | 0.0 | 0.0 | 0.00 | 0.00 | 0.00 | 10 | 1020.6 |
| 20260506011933 | 45 | 34 | 0.0 | 0.0 | 0.00 | 0.00 | 0.00 | 10 | 1020.5 |
| 20260506011430 | 45 | 46 | 0.0 | 2.0 | 0.00 | 0.00 | 0.00 | 10 | 1020.3 |
| 20260506010927 | 45 | 41 | 0.0 | 0.0 | 0.00 | 0.00 | 0.00 | 10 | 1020.5 |
| 20260506010426 | 46 | 36 | 0.0 | 0.0 | 0.00 | 0.00 | 0.00 | 10 | 1020.5 |
| 20260506005921 | 46 | 37 | 0.0 | 1.0 | 0.00 | 0.00 | 0.00 | 10 | 1020.5 |
| 20260506005420 | 46 | 37 | 1.0 | 2.0 | 0.00 | 0.00 | 0.00 | 10 | 1020.7 |
| 20260506004914 | 46 | 25 | 0.0 | 0.0 | 0.00 | 0.00 | 0.00 | 10 | 1020.3 |
| 20260506004413 | 46 | 40 | 0.0 | 0.0 | 0.00 | 0.00 | 0.00 | 10 | 1020.5 |
| 20260506003908 | 46 | 42 | 1.0 | 15.0 | 0.00 | 0.00 | 0.00 | 10 | 1020.3 |
| 20260506003405 | 46 | 15 | 0.0 | 0.0 | 0.00 | 0.00 | 0.00 | 10 | 1020.3 |
| 20260506002902 | 47 | 8 | 0.0 | 3.0 | 0.00 | 0.00 | 0.00 | 10 | 1020.5 |
| 20260506002358 | 46 | 40 | 0.0 | 2.0 | 0.00 | 0.00 | 0.00 | 10 | 1020.5 |
| 20260506001853 | 47 | 39 | 0.0 | 2.0 | 0.00 | 0.00 | 0.00 | 10 | 1020.3 |
| 20260506001350 | 47 | 27 | 0.0 | 0.0 | 0.00 | 0.00 | 0.00 | 10 | 1020.5 |
| 20260506000847 | 47 | 23 | 0.0 | 0.0 | 0.00 | 0.00 | 0.00 | 10 | 1020.5 |
| 20260506000346 | 46 | 29 | 1.0 | 2.0 | 0.00 | 0.00 | 0.00 | 10 | 1020.3 |
| 20260505235842 | 47 | 13 | 0.0 | 1.0 | 0.00 | 0.00 | 0.00 | 10 | 1020.5 |
| 20260505235339 | 47 | 356 | 0.0 | 1.0 | 0.00 | 0.00 | 0.00 | 10 | 1020.5 |
| 20260505234836 | 47 | 28 | 1.0 | 1.0 | 0.00 | 0.00 | 0.00 | 10 | 1020.5 |
| 20260505234334 | 47 | 45 | 0.0 | 0.0 | 0.00 | 0.00 | 0.00 | 10 | 1020.2 |
| 20260505233831 | 47 | 31 | 0.0 | 1.0 | 0.00 | 0.00 | 0.00 | 10 | 1020.3 |
| 20260505233329 | 47 | 59 | 1.0 | 2.0 | 0.00 | 0.00 | 0.00 | 10 | 1020.5 |
| 20260505232826 | 47 | 13 | 1.0 | 2.0 | 0.00 | 0.00 | 0.00 | 10 | 1020.6 |
| 20260505232323 | 47 | 37 | 0.0 | 1.0 | 0.00 | 0.00 | 0.00 | 10 | 1020.6 |
| 20260505231820 | 47 | 22 | 0.0 | 0.0 | 0.00 | 0.00 | 0.00 | 10 | 1020.5 |
| 20260505231318 | 48 | 3 | 0.0 | 2.0 | 0.00 | 0.00 | 0.00 | 10 | 1020.5 |
| 20260505230816 | 47 | 43 | 1.0 | 3.0 | 0.00 | 0.00 | 0.00 | 10 | 1020.2 |
| 20260505230313 | 47 | 31 | 1.0 | 2.0 | 0.00 | 0.00 | 0.00 | 10 | 1020.5 |
| 20260505225809 | 47 | 9 | 0.0 | 3.0 | 0.00 | 0.00 | 0.00 | 10 | 1020.6 |
| 20260505225306 | 48 | 20 | 0.0 | 0.0 | 0.00 | 0.00 | 0.00 | 10 | 1020.6 |
| 20260505224801 | 47 | 3 | 0.0 | 3.0 | 0.00 | 0.00 | 0.00 | 10 | 1020.6 |
| 20260505224259 | 48 | 351 | 0.0 | 0.0 | 0.00 | 0.00 | 0.00 | 10 | 1020.5 |
| 20260505223756 | 47 | 32 | 0.0 | 1.0 | 0.00 | 0.00 | 0.00 | 10 | 1020.3 |
| 20260505223253 | 48 | 12 | 0.0 | 3.0 | 0.00 | 0.00 | 0.00 | 10 | 1020.5 |
| 20260505222749 | 48 | 5 | 0.0 | 0.0 | 0.00 | 0.00 | 0.00 | 10 | 1020.5 |
| 20260505222245 | 47 | 30 | 0.0 | 0.0 | 0.00 | 0.00 | 0.00 | 10 | 1020.6 |
| 20260505221743 | 48 | 10 | 0.0 | 0.0 | 0.00 | 0.00 | 0.00 | 10 | 1020.5 |
| 20260505221239 | 47 | 35 | 0.0 | 3.0 | 0.00 | 0.00 | 0.00 | 10 | 1020.7 |
| 20260505220736 | 48 | 8 | 0.0 | 0.0 | 0.00 | 0.00 | 0.00 | 10 | 1020.5 |
| 20260505220233 | 47 | 14 | 1.0 | 2.0 | 0.00 | 0.00 | 0.00 | 10 | 1020.5 |
| 20260505215731 | 47 | 29 | 0.0 | 2.0 | 0.00 | 0.00 | 0.00 | 10 | 1020.5 |
| 20260505215229 | 47 | 40 | 0.0 | 15.0 | 0.00 | 0.00 | 0.00 | 10 | 1020.5 |
| 20260505214727 | 47 | 22 | 0.0 | 0.0 | 0.00 | 0.00 | 0.00 | 10 | 1020.8 |
| 20260505214224 | 47 | 6 | 1.0 | 3.0 | 0.00 | 0.00 | 0.00 | 10 | 1020.7 |
| 20260505213721 | 46 | 19 | 0.0 | 2.0 | 0.00 | 0.00 | 0.00 | 10 | 1020.6 |
| 20260505213218 | 46 | 46 | 0.0 | 2.0 | 0.00 | 0.00 | 0.00 | 10 | 1020.6 |
| 20260505212714 | 47 | 35 | 0.0 | 0.0 | 0.00 | 0.00 | 0.00 | 10 | 1020.6 |
| 20260505212212 | 46 | 24 | 0.0 | 0.0 | 0.00 | 0.00 | 0.00 | 10 | 1020.8 |
| 20260505211708 | 47 | 17 | 1.0 | 3.0 | 0.00 | 0.00 | 0.00 | 10 | 1020.8 |